Weather observations for the past three days for
Alexandria, Chandler Field
Metric (Imperial)
Date Time (cdt) Wind (kph) Vis. (km) Weather Sky Cond. Temperature (ºC) Relative Humidity Wind Chill (°C) Heat Index (°C) Pressure Precipitation (cm)
Air Dwpt 6 hour altimeter (cm) sea level (mb) 1 hr 3 hr 6 hr
Max. Min.
15 17:53 N 26 G 43 16.09 Fair CLR 25.6 16.1 56% 26 75.72 1009.0
15 16:53 N 24 16.09 Mostly Cloudy BKN036 BKN045 25.6 17.2 60% 27 75.72 1009.0
15 15:53 NW 20 G 33 16.09 Partly Cloudy FEW029 SCT041 SCT050 25.6 18.3 64% 27 75.72 1008.8
15 14:53 NW 24 G 33 16.09 Partly Cloudy FEW026 SCT039 26.1 19.4 67% 27 75.69 1008.5
15 13:53 NW 22 16.09 Partly Cloudy FEW020 SCT026 SCT050 26.7 20.6 69% 28 75.67 1007.9
15 12:53 W 17 G 30 16.09 Partly Cloudy SCT020 25.6 20.6 26.1 19.4 74% 27 75.64 1008.0
15 11:53 SW 19 16.09 Mostly Cloudy BKN037 24.4 19.4 74% 25 75.67 1008.1
15 10:53 S 19 16.09 Overcast OVC040 22.8 17.8 74% 75.67 1008.2
15 09:53 S 20 G 35 16.09 Fair CLR 21.1 17.8 82% 75.67 1008.2
15 08:53 S 15 16.09 Mostly Cloudy BKN050 20 18.3 90% 75.69 1008.5
15 07:53 S 22 16.09 Mostly Cloudy SCT075 BKN095 20.6 18.3 87% 75.72 1008.7
15 06:53 SE 11 16.09 Partly Cloudy FEW030 SCT100 19.4 18.3 20.6 18.9 93% 75.74 1009.0 0.05 0.23
15 05:53 NW 13 9.66 Thunderstorm in Vicinity Rain Fog/Mist OVC100 19.4 17.8 91% 75.92 1011.4 0.13
15 04:53 Calm 16.09 Mostly Cloudy SCT038 SCT055 BKN070 20 18.3 90% 75.87 1010.6 0.05
15 03:53 Calm 16.09 Fair CLR 20 16.7 81% 75.77 1009.2
15 02:53 SE 9 16.09 Fair CLR 20 16.1 78% 75.79 1009.5
15 01:53 E 6 16.09 Fair CLR 20 17.2 84% 75.82 1009.9
15 00:53 SE 7 16.09 Fair CLR 20 17.2 28.3 19.4 84% 75.84 1010.5
14 23:53 Calm 16.09 Fair CLR 21.1 17.8 82% 75.92 1011.4
14 22:53 SW 7 16.09 Fair CLR 20 17.2 84% 75.95 1011.9
14 21:53 Calm 16.09 Fair CLR 22.2 18.3 79% 75.95 1011.7
14 20:53 Calm 16.09 Fair CLR 25.6 17.2 60% 27 75.97 1012.1
14 19:53 Calm 16.09 Fair CLR 27.2 17.2 54% 28 76 1012.4
14 18:53 NW 13 16.09 Fair CLR 28.3 14.4 30 28.3 43% 28 76.02 1012.8
14 17:53 NW 13 16.09 Fair CLR 28.9 14.4 41% 29 76.05 1013.1
14 16:53 W 13 16.09 Fair CLR 29.4 16.7 46% 30 76.05 1013.1
14 15:53 W 11 16.09 Fair CLR 30 14.4 39% 30 76.07 1013.4
14 14:53 N 15 16.09 Fair CLR 30 15.6 42% 30 76.05 1013.2
14 13:53 Vrbl 7 16.09 Fair CLR 29.4 17.8 50% 30 76.02 1012.8
14 12:53 NW 13 16.09 Fair CLR 28.3 18.9 28.9 18.9 57% 30 76.05 1013.0
14 11:53 NW 13 16.09 Fair CLR 27.8 21.1 67% 30 76.05 1013.0
14 10:53 NW 11 16.09 Fair CLR 26.7 20.6 69% 28 76.05 1013.2
14 09:53 N 13 16.09 Fair CLR 24.4 20.6 79% 25 76 1012.5
14 08:53 NE 7 16.09 Fair CLR 22.2 18.9 82% 76.07 1013.3
14 07:53 W 7 16.09 Fair CLR 20.6 18.3 87% 76.1 1013.8
14 06:53 W 9 16.09 Fair CLR 18.9 17.2 21.1 16.7 90% 76.02 1013.0
14 05:53 NW 9 16.09 Fair CLR 17.8 16.7 93% 75.97 1012.1
14 04:53 W 7 16.09 Fair CLR 17.2 16.7 97% 75.97 1012.2
14 03:53 W 6 16.09 Fair CLR 17.8 17.2 96% 75.95 1012.0
14 02:53 Calm 16.09 Fair CLR 18.3 17.8 97% 75.97 1012.1
14 01:53 N 13 16.09 Fair CLR 20.6 18.9 90% 75.95 1011.7
14 00:53 SW 13 16.09 Fair CLR 20.6 18.9 28.3 19.4 90% 75.9 1011.2 0.89
13 23:53 SW 19 16.09 A Few Clouds FEW023 21.7 18.3 81% 75.97 1012.2 0.89
13 22:53 NE 33 G 65 16.09 Thunderstorm and Breezy FEW019 BKN048 OVC060 20 16.7 81% 76.1 1013.9
13 21:53 E 15 16.09 Partly Cloudy FEW049 SCT055 24.4 21.7 85% 25 75.95 1011.9
13 20:53 E 13 16.09 Fair CLR 26.1 21.7 77% 28 75.95 1011.9
13 19:53 SE 11 16.09 Fair CLR 27.2 21.7 72% 29 75.92 1011.7
13 18:53 S 13 16.09 Partly Cloudy SCT036 28.3 21.1 29.4 27.2 65% 31 75.97 1012.2
13 17:53 S 15 16.09 Overcast OVC034 27.8 20 63% 29 76.02 1012.9
13 16:53 S 24 16.09 Partly Cloudy SCT036 28.9 19.4 57% 30 76.05 1013.1
13 15:53 S 17 G 33 16.09 A Few Clouds FEW042 FEW050 28.9 19.4 57% 30 76.1 1013.6
13 14:53 S 19 16.09 Overcast OVC046 28.9 18.9 55% 30 76.15 1014.3
13 13:53 S 24 16.09 A Few Clouds FEW044 28.9 18.3 53% 30 76.12 1014.1
13 12:53 SW 19 16.09 Partly Cloudy SCT050 28.3 18.9 28.3 20 57% 30 76.15 1014.3 0.03
13 11:53 S 11 16.09 Mostly Cloudy BKN060 25.6 19.4 69% 27 76.12 1014.1
13 10:53 S 6 16.09 Partly Cloudy FEW080 SCT110 24.4 17.8 67% 25 76.1 1013.8
13 09:53 Vrbl 7 G 31 16.09 Partly Cloudy SCT080 21.7 17.2 76% 76.12 1014.1 0.03 0.03
13 08:53 S 19 16.09 Mostly Cloudy FEW045 BKN110 20.6 18.3 87% 76.17 1014.8
13 07:53 Vrbl 6 16.09 Mostly Cloudy SCT070 BKN095 BKN120 20 16.7 81% 76.15 1014.6
13 06:53 SE 28 16.09 Thunderstorm Light Rain FEW080 SCT100 OVC120 20 17.2 22.2 19.4 84% 76.05 1013.1 0.23 1.02
13 05:53 SE 9 9.66 Thunderstorm in Vicinity Rain Fog/Mist FEW075 BKN090 OVC110 19.4 18.3 93% 76.2 1015.2 0.69
13 04:53 W 31 G 52 8.05 Thunderstorm Rain Fog/Mist SCT024 BKN047 BKN060 20.6 18.3 87% 76.2 1015.0 0.1
13 03:53 SE 11 16.09 Mostly Cloudy BKN026 BKN049 21.7 20 90% 76.17 1014.8
13 02:53 SE 13 16.09 Overcast OVC047 21.7 19.4 87% 76.17 1014.8
13 01:53 S 13 16.09 Fair CLR 21.7 18.9 84% 76.2 1015.0
13 00:53 SE 15 16.09 Fair CLR 22.2 18.9 27.8 22.2 82% 76.2 1015.2
12 23:53 SE 13 16.09 Fair CLR 22.2 18.3 79% 76.25 1015.7
12 22:53 SE 11 16.09 Fair CLR 23.3 18.3 74% 76.25 1015.8
12 21:53 SE 13 16.09 Fair CLR 24.4 18.3 69% 25 76.23 1015.6
12 20:53 SE 9 16.09 Fair CLR 25.6 18.3 64% 27 76.23 1015.6
12 19:53 S 20 16.09 Fair CLR 27.2 17.8 57% 28 76.23 1015.3
12 18:53 S 22 16.09 Partly Cloudy SCT100 28.3 18.3 29.4 27.8 55% 29 76.2 1015.2
Date Time (cdt) Wind (kph) Vis. (km) Weather Sky Cond. Air Dwpt Max. Min. Relative Humidity Wind Chill (°C) Heat Index (°C) altimeter (cm) sea level (mb) 1 hr 3 hr 6 hr
6 hour
Temperature (ºC) Pressure Precipitation (cm)